Погода в Чёрной Речке

Россия / Томская область     56°23′59″N   84°54′35″E
темп.,
°C
ветер,
м/с
пор.,
м/с
влажн.,
%
обл.,
%
осадки,
мм/ч
давл.,
гПа
погр.,
м
24 июня, чт
чт2401:00+7в389759 0.5 1011157
04:00+7всв379835 0.0 1009169
07:00+9всв489536 0.0 1008293
10:00+15в466855 0.0 10061046
13:00+18всв455372 0.0 10051583
16:00+16всв4664100 0.2 1004823
19:00+14в3684100 1.2 1004152
22:00+11вюв2797100 2.2 1005265
25 июня, пт
пт2501:00+11юв0099100 4.8 100416
04:00+10ю1199100 3.9 100450
07:00+10зюз2499100 8.4 1005258
10:00+9сз259899 2.4 1006297
13:00+10зсз2396100 3.7 1007292
16:00+10з1296100 1.5 1008189
19:00+10юз2598100 3.4 1009179
22:00+10юз3896100 0.1 1010230
26 июня, сб
сб2601:00+9ююз2797100 0.1 1010190
04:00+7юз2695100 0.0 1011126
07:00+9ююз2794100 0.0 1011228
10:00+11зюз3892100 0.2 1012406
13:00+13з4889100 1.9 1011618
16:00+13зсз3893100 1.8 1012571
19:00+11з2596100 1.9 1012312
22:00+10юз2298100 0.0 101348
27 июня, вс
вс2701:00+10юз2698100 0.6 1012144
04:00+9ююз249899 1.2 1013115
07:00+11ююз3696100 1.3 1013187
10:00+15зюз3579100 0.2 1012539
13:00+16з358699 2.4 1012809
16:00+16з358395 2.4 1012916
19:00+17зюз12735 3.4 1012603
22:00+13ююз229215 0.3 101220
28 июня, пн
пн2801:00+11ююз129324 0.3 101213
04:00+9юз22966 0.0 101322
07:00+12ю119060 0.0 101388
10:00+18з23655 0.0 1013598
13:00+21ссв134314 0.4 10122243
16:00+22ссз233642 0.0 10122486
19:00+21сз235199 0.0 1013669
22:00+14ююз117939 0.0 101413